Total_Precipitation_Accumulation
0.03 0.03 0.02 0.02 0.02 0.01 0.01 0.01 0.00 0.00 0.00 0.00 0.00 0.00 0.00 0.00 0.00 0.00 0.00 0.00 0.00 0.00 0.01 0.03 0.07 0.10 0.15 0.19 0.22 0.23 0.20 0.16 0.13 0.13 0.13 0.12 0.12 0.13 0.14 0.15 0.16 0.16 0.18
0.03 0.03 0.03 0.03 0.02 0.01 0.01 0.00 0.00 0.00 0.00 0.00 0.00 0.00 0.00 0.00 0.00 0.00 0.00 0.00 0.00 0.00 0.01 0.03 0.08 0.13 0.19 0.24 0.26 0.27 0.23 0.19 0.16 0.15 0.14 0.13 0.14 0.14 0.15 0.17 0.18 0.18 0.19
0.04 0.04 0.04 0.03 0.02 0.02 0.01 0.01 0.01 0.01 0.00 0.00 0.00 0.00 0.00 0.00 0.00 0.00 0.00 0.00 0.00 0.00 0.01 0.03 0.07 0.12 0.18 0.23 0.25 0.29 0.30 0.26 0.22 0.19 0.17 0.17 0.16 0.17 0.18 0.20 0.22 0.23 0.23
0.05 0.05 0.05 0.04 0.03 0.02 0.02 0.02 0.02 0.02 0.02 0.02 0.02 0.02 0.01 0.01 0.01 0.00 0.01 0.01 0.01 0.01 0.01 0.01 0.03 0.07 0.13 0.17 0.21 0.27 0.33 0.34 0.30 0.27 0.24 0.22 0.22 0.23 0.24 0.26 0.28 0.30 0.31
0.09 0.06 0.05 0.07 0.06 0.04 0.04 0.04 0.03 0.04 0.04 0.05 0.04 0.03 0.02 0.02 0.01 0.01 0.01 0.01 0.01 0.01 0.01 0.01 0.01 0.03 0.06 0.11 0.15 0.23 0.33 0.40 0.38 0.35 0.34 0.33 0.33 0.32 0.35 0.37 0.38 0.39 0.40
0.18 0.13 0.09 0.08 0.10 0.09 0.08 0.08 0.08 0.08 0.07 0.07 0.06 0.04 0.02 0.02 0.01 0.01 0.01 0.01 0.01 0.01 0.01 0.02 0.02 0.02 0.03 0.07 0.14 0.21 0.32 0.40 0.42 0.41 0.41 0.42 0.42 0.43 0.45 0.48 0.49 0.48 0.48
0.27 0.23 0.17 0.16 0.16 0.17 0.17 0.17 0.15 0.13 0.12 0.13 0.11 0.06 0.03 0.02 0.01 0.01 0.01 0.01 0.01 0.02 0.02 0.02 0.03 0.04 0.06 0.08 0.13 0.17 0.22 0.31 0.41 0.46 0.46 0.46 0.47 0.50 0.54 0.58 0.61 0.61 0.60
0.39 0.32 0.26 0.23 0.20 0.19 0.21 0.20 0.20 0.20 0.19 0.19 0.18 0.15 0.07 0.02 0.01 0.02 0.02 0.02 0.02 0.03 0.03 0.04 0.05 0.06 0.08 0.10 0.11 0.11 0.13 0.19 0.32 0.46 0.50 0.49 0.47 0.50 0.56 0.64 0.70 0.75 0.76
0.58 0.49 0.40 0.34 0.27 0.22 0.20 0.22 0.25 0.26 0.24 0.21 0.20 0.23 0.16 0.07 0.05 0.04 0.04 0.04 0.05 0.04 0.05 0.05 0.06 0.06 0.07 0.07 0.07 0.07 0.09 0.12 0.18 0.34 0.48 0.53 0.54 0.56 0.64 0.74 0.81 0.90 0.94
0.71 0.64 0.54 0.47 0.39 0.33 0.27 0.28 0.30 0.32 0.33 0.28 0.23 0.21 0.21 0.18 0.19 0.12 0.06 0.06 0.08 0.07 0.07 0.08 0.08 0.08 0.08 0.08 0.09 0.11 0.15 0.19 0.25 0.40 0.59 0.70 0.77 0.86 0.96 1.04 1.12 1.22 1.24
0.75 0.72 0.65 0.58 0.50 0.45 0.42 0.41 0.39 0.39 0.39 0.36 0.34 0.31 0.32 0.28 0.26 0.26 0.17 0.10 0.11 0.11 0.12 0.11 0.10 0.10 0.10 0.10 0.13 0.20 0.28 0.34 0.42 0.56 0.73 0.90 1.05 1.18 1.30 1.38 1.47 1.57 1.67
0.66 0.63 0.64 0.59 0.55 0.52 0.50 0.49 0.50 0.49 0.48 0.47 0.44 0.42 0.42 0.39 0.33 0.36 0.33 0.22 0.20 0.18 0.19 0.19 0.18 0.18 0.17 0.17 0.21 0.29 0.34 0.40 0.49 0.62 0.81 1.01 1.13 1.24 1.36 1.47 1.55 1.62 1.75
0.62 0.58 0.56 0.53 0.53 0.55 0.59 0.58 0.57 0.54 0.56 0.54 0.52 0.49 0.47 0.42 0.39 0.43 0.45 0.36 0.28 0.22 0.22 0.23 0.24 0.25 0.26 0.28 0.32 0.41 0.43 0.49 0.56 0.68 0.84 1.00 1.07 1.06 1.07 1.12 1.23 1.33 1.41
0.61 0.59 0.58 0.57 0.58 0.58 0.58 0.57 0.56 0.55 0.56 0.55 0.54 0.54 0.52 0.48 0.46 0.47 0.50 0.56 0.54 0.42 0.36 0.34 0.35 0.39 0.43 0.45 0.51 0.55 0.51 0.58 0.59 0.64 0.74 0.85 0.90 0.83 0.76 0.80 0.90 1.01 1.10
0.63 0.61 0.60 0.57 0.56 0.55 0.54 0.55 0.53 0.52 0.51 0.50 0.49 0.51 0.51 0.48 0.47 0.50 0.54 0.63 0.77 0.78 0.64 0.53 0.53 0.56 0.58 0.57 0.60 0.54 0.48 0.57 0.60 0.61 0.63 0.66 0.67 0.65 0.62 0.63 0.66 0.70 0.76
0.59 0.57 0.57 0.54 0.51 0.50 0.49 0.48 0.45 0.43 0.44 0.44 0.44 0.46 0.47 0.46 0.48 0.52 0.57 0.64 0.74 0.87 0.86 0.69 0.61 0.62 0.63 0.60 0.61 0.51 0.45 0.53 0.51 0.51 0.52 0.53 0.52 0.50 0.51 0.53 0.56 0.59 0.60
0.47 0.46 0.47 0.46 0.44 0.42 0.40 0.39 0.38 0.36 0.37 0.38 0.38 0.41 0.43 0.45 0.50 0.54 0.60 0.67 0.75 0.85 0.90 0.80 0.68 0.62 0.59 0.54 0.48 0.39 0.32 0.31 0.30 0.37 0.37 0.36 0.37 0.39 0.39 0.40 0.45 0.50 0.53
0.41 0.39 0.38 0.37 0.36 0.35 0.33 0.33 0.33 0.33 0.34 0.37 0.38 0.41 0.44 0.48 0.55 0.61 0.67 0.72 0.74 0.75 0.76 0.71 0.60 0.51 0.45 0.38 0.32 0.25 0.20 0.17 0.16 0.22 0.23 0.23 0.24 0.25 0.26 0.28 0.32 0.40 0.47
0.40 0.37 0.34 0.34 0.31 0.30 0.30 0.31 0.31 0.32 0.34 0.36 0.39 0.43 0.47 0.51 0.55 0.56 0.56 0.56 0.54 0.51 0.50 0.49 0.43 0.37 0.32 0.27 0.23 0.17 0.13 0.10 0.08 0.10 0.10 0.11 0.12 0.16 0.19 0.24 0.28 0.32 0.33
0.33 0.33 0.31 0.30 0.31 0.30 0.30 0.30 0.31 0.34 0.38 0.43 0.46 0.49 0.51 0.51 0.49 0.47 0.43 0.41 0.38 0.34 0.32 0.32 0.32 0.29 0.26 0.20 0.17 0.13 0.09 0.06 0.05 0.04 0.05 0.06 0.09 0.14 0.15 0.14 0.14 0.13 0.13
0.22 0.23 0.24 0.26 0.29 0.32 0.35 0.38 0.40 0.45 0.48 0.50 0.50 0.49 0.48 0.48 0.44 0.38 0.33 0.29 0.26 0.26 0.29 0.33 0.33 0.28 0.20 0.14 0.10 0.06 0.06 0.05 0.03 0.03 0.04 0.04 0.05 0.04 0.03 0.04 0.05 0.07 0.09
0.25 0.27 0.31 0.34 0.40 0.46 0.61 0.61 0.54 0.52 0.51 0.48 0.44 0.40 0.36 0.35 0.30 0.28 0.25 0.24 0.26 0.30 0.37 0.42 0.34 0.22 0.11 0.07 0.06 0.07 0.11 0.15 0.10 0.02 0.04 0.03 0.02 0.01 0.01 0.03 0.08 0.11 0.14
0.40 0.44 0.49 0.55 0.61 0.69 0.76 0.67 0.59 0.47 0.43 0.39 0.34 0.29 0.24 0.20 0.18 0.15 0.15 0.18 0.21 0.26 0.27 0.24 0.15 0.07 0.05 0.05 0.13 0.20 0.18 0.19 0.12 0.03 0.05 0.05 0.02 0.03 0.02 0.04 0.09 0.10 0.11
0.61 0.69 0.74 0.75 0.74 0.72 0.67 0.54 0.44 0.35 0.30 0.25 0.21 0.16 0.13 0.11 0.10 0.12 0.15 0.20 0.16 0.11 0.08 0.06 0.05 0.05 0.07 0.08 0.16 0.26 0.23 0.16 0.06 0.02 0.04 0.06 0.03 0.02 0.02 0.03 0.05 0.08 0.11
0.76 0.77 0.73 0.66 0.58 0.50 0.41 0.31 0.23 0.18 0.15 0.12 0.09 0.08 0.08 0.06 0.09 0.18 0.23 0.23 0.13 0.06 0.04 0.05 0.08 0.08 0.07 0.06 0.07 0.15 0.21 0.23 0.14 0.02 0.02 0.04 0.03 0.02 0.02 0.02 0.03 0.05 0.09
0.57 0.48 0.39 0.31 0.24 0.19 0.16 0.14 0.11 0.08 0.07 0.06 0.06 0.06 0.08 0.10 0.17 0.25 0.23 0.21 0.12 0.07 0.08 0.07 0.04 0.02 0.02 0.01 0.02 0.09 0.27 0.50 0.37 0.17 0.01 0.08 0.12 0.15 0.23 0.03 0.02 0.03 0.04